User: anonymous   Login
Location: Caltech
(34.1382°N, 118.1253°W)
Time: 16:18:28
(UTC-07:00)
Language:

Cosmos 1758 Rocket - Orbit

View from above orbital plane
View from above orbital plane
View from above satellite
View from above satellite

Ground track
Ground track

The orbit data is extracted from the following two-line orbital elements,

1 16792U 86046B   15144.19504667  .00000200  00000-0  21627-4 0  9996
2 16792 082.4833 192.7062 0022811 257.8763 158.4962 14.82914218562989
Epoch (UTC): 24 May 2015 04:40:52
Eccentricity: 0.0022811
inclination: 82.4833°
perigee height: 604 km
apogee height: 636 km
right ascension of ascending node: 192.7062°
argument of perigee: 257.8763°
revolutions per day: 14.82914218
mean anomaly at epoch: 158.4962°
orbit number at epoch: 56298

The dashed part of the orbit path shows where the satellite is in the earth's shadow,  

DLR